QPF
0.00 0.00 0.00 0.00 0.00 0.00 0.00 0.00 0.00 0.00 0.00 0.01 0.01 0.00 0.00 0.01 0.02 0.02 0.01 0.01 0.01 0.00 0.01 0.01 0.03 0.02 0.02 0.02 0.03 0.04 0.03 0.05 0.09 0.10 0.12 0.15 0.13 0.11 0.08 0.07 0.06 0.08 0.11 0.10 0.10 0.14 0.18 0.19 0.22
0.00 0.00 0.00 0.00 0.00 0.00 0.00 0.00 0.00 0.00 0.01 0.00 0.00 0.00 0.00 0.00 0.03 0.05 0.12 0.17 0.09 0.03 0.02 0.02 0.04 0.03 0.02 0.03 0.03 0.03 0.03 0.05 0.07 0.07 0.08 0.13 0.13 0.10 0.07 0.06 0.05 0.08 0.11 0.12 0.11 0.14 0.18 0.18 0.18
0.00 0.00 0.00 0.00 0.00 0.00 0.01 0.00 0.00 0.00 0.00 0.00 0.00 0.00 0.00 0.01 0.04 0.13 0.29 0.25 0.09 0.05 0.03 0.02 0.05 0.04 0.03 0.02 0.02 0.03 0.03 0.03 0.05 0.07 0.12 0.13 0.11 0.09 0.07 0.06 0.07 0.09 0.14 0.13 0.12 0.17 0.19 0.15 0.13
0.00 0.00 0.00 0.00 0.00 0.00 0.00 0.00 0.00 0.00 0.00 0.00 0.00 0.00 0.00 0.01 0.05 0.14 0.16 0.10 0.05 0.03 0.03 0.05 0.06 0.04 0.03 0.03 0.02 0.02 0.03 0.05 0.08 0.13 0.13 0.10 0.10 0.09 0.08 0.06 0.07 0.10 0.14 0.17 0.18 0.20 0.15 0.12 0.11
0.00 0.00 0.00 0.00 0.00 0.00 0.00 0.01 0.01 0.00 0.00 0.00 0.00 0.00 0.01 0.01 0.03 0.05 0.05 0.04 0.04 0.04 0.05 0.06 0.04 0.04 0.03 0.03 0.02 0.03 0.03 0.05 0.12 0.12 0.08 0.07 0.09 0.08 0.07 0.07 0.07 0.09 0.13 0.18 0.21 0.17 0.11 0.10 0.09
0.00 0.00 0.00 0.00 0.00 0.00 0.00 0.00 0.01 0.00 0.00 0.00 0.00 0.00 0.01 0.01 0.03 0.04 0.05 0.06 0.07 0.09 0.09 0.04 0.02 0.02 0.03 0.02 0.02 0.03 0.03 0.05 0.07 0.07 0.06 0.06 0.07 0.07 0.06 0.07 0.07 0.06 0.11 0.14 0.13 0.09 0.07 0.07 0.06
0.00 0.00 0.00 0.00 0.00 0.00 0.00 0.00 0.01 0.01 0.00 0.00 0.00 0.00 0.00 0.01 0.02 0.03 0.04 0.06 0.09 0.09 0.05 0.04 0.02 0.01 0.02 0.02 0.02 0.02 0.03 0.05 0.06 0.04 0.04 0.06 0.06 0.06 0.06 0.06 0.05 0.05 0.05 0.08 0.08 0.06 0.05 0.05 0.04
0.00 0.00 0.00 0.00 0.00 0.00 0.00 0.01 0.01 0.00 0.00 0.00 0.00 0.00 0.00 0.00 0.01 0.01 0.01 0.02 0.03 0.01 0.02 0.04 0.03 0.02 0.02 0.02 0.02 0.02 0.04 0.06 0.05 0.03 0.03 0.04 0.05 0.06 0.06 0.05 0.04 0.05 0.06 0.07 0.07 0.06 0.05 0.05 0.04
0.00 0.00 0.00 0.00 0.00 0.00 0.00 0.00 0.01 0.01 0.00 0.00 0.00 0.00 0.00 0.00 0.00 0.00 0.01 0.01 0.01 0.02 0.02 0.02 0.02 0.01 0.01 0.02 0.02 0.02 0.04 0.06 0.04 0.02 0.02 0.03 0.05 0.05 0.05 0.04 0.03 0.04 0.06 0.07 0.07 0.06 0.05 0.05 0.04
0.00 0.00 0.00 0.00 0.00 0.00 0.00 0.00 0.00 0.00 0.00 0.00 0.00 0.00 0.00 0.00 0.01 0.02 0.02 0.01 0.02 0.02 0.02 0.02 0.01 0.01 0.01 0.01 0.02 0.04 0.02 0.03 0.04 0.04 0.03 0.02 0.03 0.03 0.05 0.05 0.06 0.05 0.05 0.05 0.05 0.04 0.04 0.03 0.04
0.00 0.00 0.00 0.00 0.00 0.00 0.00 0.00 0.00 0.00 0.00 0.00 0.01 0.01 0.01 0.02 0.02 0.02 0.03 0.02 0.02 0.02 0.01 0.01 0.01 0.01 0.01 0.01 0.02 0.02 0.02 0.02 0.03 0.02 0.02 0.02 0.01 0.02 0.07 0.10 0.08 0.05 0.05 0.06 0.05 0.04 0.03 0.03 0.03
0.00 0.00 0.00 0.00 0.00 0.00 0.00 0.00 0.00 0.00 0.00 0.00 0.01 0.02 0.02 0.02 0.01 0.02 0.02 0.02 0.03 0.03 0.02 0.02 0.02 0.02 0.02 0.02 0.02 0.01 0.01 0.02 0.01 0.01 0.01 0.02 0.01 0.02 0.06 0.08 0.07 0.06 0.07 0.06 0.06 0.06 0.04 0.03 0.03
0.00 0.00 0.00 0.00 0.00 0.00 0.01 0.01 0.01 0.00 0.00 0.00 0.00 0.01 0.03 0.03 0.01 0.01 0.03 0.03 0.03 0.02 0.02 0.03 0.02 0.02 0.03 0.02 0.02 0.02 0.02 0.02 0.01 0.01 0.01 0.02 0.03 0.02 0.02 0.03 0.05 0.05 0.04 0.05 0.05 0.05 0.04 0.03 0.03
0.00 0.00 0.00 0.00 0.00 0.00 0.01 0.01 0.01 0.00 0.00 0.00 0.00 0.01 0.02 0.01 0.01 0.01 0.02 0.01 0.02 0.02 0.02 0.03 0.04 0.04 0.03 0.02 0.02 0.02 0.02 0.02 0.01 0.02 0.02 0.02 0.02 0.02 0.01 0.02 0.03 0.03 0.03 0.04 0.04 0.04 0.04 0.04 0.04
0.00 0.00 0.01 0.01 0.01 0.01 0.01 0.00 0.00 0.00 0.00 0.00 0.00 0.00 0.01 0.02 0.02 0.02 0.02 0.01 0.02 0.01 0.02 0.02 0.03 0.03 0.03 0.02 0.02 0.02 0.02 0.02 0.01 0.03 0.03 0.02 0.02 0.03 0.03 0.03 0.03 0.03 0.02 0.03 0.03 0.04 0.03 0.03 0.03
0.00 0.01 0.01 0.01 0.01 0.01 0.01 0.01 0.00 0.00 0.00 0.00 0.00 0.00 0.00 0.02 0.03 0.03 0.02 0.01 0.01 0.01 0.01 0.01 0.01 0.02 0.02 0.02 0.02 0.02 0.02 0.02 0.02 0.02 0.02 0.01 0.01 0.02 0.03 0.03 0.03 0.02 0.03 0.02 0.04 0.04 0.04 0.04 0.04
0.00 0.00 0.01 0.01 0.01 0.01 0.02 0.01 0.00 0.00 0.00 0.00 0.00 0.00 0.00 0.01 0.02 0.03 0.03 0.02 0.02 0.01 0.01 0.01 0.01 0.02 0.02 0.01 0.01 0.01 0.01 0.02 0.01 0.02 0.01 0.01 0.01 0.01 0.01 0.02 0.02 0.02 0.02 0.02 0.02 0.02 0.03 0.04 0.05
0.00 0.00 0.00 0.01 0.01 0.02 0.03 0.02 0.01 0.01 0.00 0.00 0.00 0.00 0.01 0.01 0.01 0.02 0.02 0.02 0.01 0.02 0.02 0.02 0.01 0.01 0.01 0.01 0.01 0.01 0.01 0.02 0.02 0.03 0.03 0.02 0.01 0.01 0.01 0.02 0.02 0.02 0.02 0.03 0.03 0.03 0.02 0.03 0.05
0.00 0.00 0.00 0.00 0.00 0.01 0.02 0.02 0.02 0.01 0.00 0.00 0.01 0.02 0.02 0.01 0.01 0.02 0.02 0.02 0.02 0.02 0.02 0.02 0.03 0.02 0.01 0.01 0.01 0.01 0.01 0.01 0.02 0.02 0.02 0.02 0.03 0.03 0.02 0.02 0.03 0.02 0.03 0.03 0.02 0.03 0.03 0.02 0.03
0.00 0.00 0.00 0.00 0.00 0.00 0.01 0.01 0.03 0.02 0.00 0.00 0.01 0.02 0.01 0.01 0.02 0.02 0.02 0.01 0.01 0.01 0.01 0.02 0.02 0.02 0.01 0.01 0.02 0.02 0.01 0.01 0.02 0.02 0.03 0.03 0.03 0.03 0.03 0.04 0.03 0.03 0.03 0.03 0.03 0.03 0.03 0.03 0.03
0.00 0.00 0.00 0.00 0.00 0.00 0.00 0.01 0.02 0.04 0.02 0.00 0.00 0.01 0.01 0.01 0.01 0.03 0.03 0.03 0.01 0.01 0.01 0.02 0.02 0.02 0.01 0.01 0.01 0.01 0.02 0.03 0.04 0.06 0.05 0.04 0.03 0.03 0.03 0.04 0.04 0.03 0.04 0.04 0.04 0.04 0.05 0.03 0.03
0.00 0.00 0.00 0.00 0.00 0.00 0.00 0.00 0.01 0.02 0.03 0.01 0.00 0.00 0.01 0.01 0.01 0.01 0.02 0.03 0.03 0.02 0.01 0.02 0.02 0.02 0.02 0.02 0.03 0.03 0.03 0.03 0.03 0.05 0.05 0.04 0.03 0.03 0.04 0.04 0.04 0.04 0.04 0.04 0.03 0.04 0.04 0.04 0.03
0.00 0.00 0.00 0.00 0.00 0.00 0.00 0.00 0.01 0.01 0.02 0.02 0.01 0.00 0.00 0.01 0.01 0.01 0.01 0.02 0.02 0.02 0.02 0.02 0.02 0.03 0.04 0.04 0.03 0.03 0.03 0.03 0.03 0.03 0.04 0.03 0.02 0.02 0.03 0.03 0.04 0.05 0.04 0.04 0.03 0.03 0.04 0.03 0.03
0.00 0.00 0.00 0.00 0.00 0.00 0.00 0.00 0.01 0.01 0.01 0.01 0.00 0.00 0.00 0.01 0.01 0.01 0.01 0.01 0.02 0.03 0.04 0.04 0.03 0.03 0.04 0.04 0.04 0.03 0.03 0.03 0.04 0.03 0.02 0.02 0.02 0.02 0.01 0.02 0.03 0.03 0.03 0.03 0.02 0.02 0.02 0.02 0.02
0.00 0.00 0.00 0.01 0.01 0.00 0.00 0.00 0.01 0.00 0.00 0.01 0.01 0.01 0.01 0.01 0.01 0.01 0.01 0.01 0.01 0.02 0.04 0.04 0.04 0.03 0.03 0.04 0.04 0.04 0.04 0.04 0.03 0.03 0.02 0.01 0.02 0.02 0.01 0.01 0.02 0.02 0.02 0.01 0.01 0.01 0.02 0.01 0.02
0.00 0.00 0.01 0.01 0.01 0.00 0.00 0.01 0.00 0.00 0.00 0.00 0.01 0.01 0.01 0.01 0.02 0.02 0.01 0.01 0.01 0.02 0.03 0.03 0.03 0.03 0.03 0.05 0.05 0.05 0.05 0.04 0.03 0.03 0.02 0.01 0.01 0.02 0.02 0.02 0.02 0.02 0.02 0.01 0.01 0.01 0.02 0.02 0.01
0.00 0.00 0.00 0.00 0.00 0.00 0.00 0.01 0.00 0.00 0.00 0.00 0.00 0.01 0.01 0.01 0.01 0.02 0.02 0.02 0.01 0.01 0.02 0.02 0.03 0.03 0.05 0.07 0.09 0.06 0.04 0.04 0.04 0.04 0.03 0.02 0.02 0.02 0.01 0.01 0.01 0.01 0.01 0.01 0.01 0.01 0.01 0.02 0.02
0.00 0.00 0.00 0.00 0.00 0.00 0.00 0.01 0.00 0.00 0.00 0.00 0.00 0.00 0.00 0.00 0.01 0.01 0.02 0.02 0.02 0.01 0.01 0.02 0.04 0.06 0.07 0.07 0.07 0.07 0.07 0.07 0.06 0.05 0.05 0.04 0.03 0.02 0.02 0.01 0.01 0.01 0.01 0.01 0.02 0.01 0.01 0.01 0.02
0.00 0.00 0.00 0.00 0.00 0.00 0.00 0.00 0.00 0.00 0.00 0.00 0.00 0.00 0.00 0.00 0.01 0.01 0.01 0.01 0.01 0.02 0.02 0.03 0.04 0.06 0.06 0.05 0.05 0.06 0.07 0.07 0.06 0.05 0.05 0.05 0.04 0.03 0.03 0.02 0.01 0.01 0.01 0.01 0.02 0.01 0.01 0.01 0.01
0.00 0.00 0.00 0.01 0.01 0.01 0.00 0.00 0.00 0.00 0.00 0.00 0.00 0.00 0.00 0.01 0.01 0.01 0.01 0.01 0.01 0.01 0.02 0.03 0.04 0.04 0.03 0.04 0.05 0.04 0.06 0.07 0.06 0.04 0.04 0.04 0.05 0.05 0.05 0.03 0.02 0.02 0.02 0.02 0.02 0.02 0.02 0.03 0.02
MSLP
1007.08 1007.42 1007.76 1008.02 1008.08 1007.92 1007.55 1007.04 1006.51 1006.07 1005.84 1005.84 1006.07 1006.45 1006.88 1007.24 1007.45 1007.49 1007.39 1007.21 1007.04 1006.95 1006.96 1007.07 1007.21 1007.30 1007.27 1007.08 1006.75 1006.30 1005.79 1005.27 1004.75 1004.17 1003.45 1002.50 1001.25 999.68 997.87 995.99 994.27 992.96 992.27 992.33 993.12 994.52 996.33 998.27 1000.06
1007.17 1007.48 1007.78 1007.95 1007.94 1007.70 1007.26 1006.71 1006.17 1005.75 1005.54 1005.59 1005.86 1006.27 1006.73 1007.12 1007.37 1007.44 1007.38 1007.26 1007.15 1007.11 1007.17 1007.31 1007.47 1007.58 1007.56 1007.39 1007.07 1006.66 1006.19 1005.72 1005.24 1004.69 1003.99 1003.04 1001.76 1000.15 998.29 996.35 994.59 993.25 992.55 992.59 993.38 994.79 996.60 998.54 1000.34
1007.31 1007.59 1007.83 1007.92 1007.82 1007.50 1007.00 1006.43 1005.88 1005.48 1005.31 1005.40 1005.71 1006.15 1006.63 1007.04 1007.30 1007.40 1007.38 1007.30 1007.24 1007.26 1007.37 1007.55 1007.75 1007.87 1007.87 1007.72 1007.42 1007.03 1006.60 1006.17 1005.73 1005.23 1004.59 1003.70 1002.49 1000.96 999.18 997.33 995.65 994.36 993.68 993.71 994.45 995.78 997.48 999.30 1000.98
1007.47 1007.72 1007.90 1007.91 1007.72 1007.33 1006.79 1006.19 1005.65 1005.29 1005.16 1005.29 1005.64 1006.11 1006.60 1007.01 1007.29 1007.40 1007.41 1007.37 1007.36 1007.43 1007.59 1007.82 1008.05 1008.20 1008.22 1008.07 1007.78 1007.40 1006.99 1006.58 1006.18 1005.75 1005.19 1004.43 1003.38 1002.03 1000.46 998.82 997.31 996.16 995.55 995.56 996.21 997.37 998.87 1000.45 1001.91
1007.64 1007.86 1007.97 1007.91 1007.64 1007.19 1006.61 1006.01 1005.49 1005.16 1005.08 1005.26 1005.63 1006.13 1006.63 1007.05 1007.33 1007.46 1007.49 1007.49 1007.52 1007.63 1007.84 1008.11 1008.37 1008.55 1008.57 1008.43 1008.14 1007.75 1007.33 1006.93 1006.56 1006.19 1005.75 1005.14 1004.31 1003.23 1001.96 1000.61 999.37 998.41 997.89 997.89 998.41 999.35 1000.56 1001.83 1003.00
1007.79 1007.97 1008.02 1007.89 1007.56 1007.07 1006.47 1005.87 1005.37 1005.09 1005.05 1005.26 1005.67 1006.18 1006.70 1007.13 1007.42 1007.57 1007.63 1007.66 1007.73 1007.89 1008.14 1008.44 1008.72 1008.90 1008.93 1008.78 1008.47 1008.07 1007.63 1007.21 1006.86 1006.54 1006.21 1005.78 1005.19 1004.42 1003.48 1002.47 1001.52 1000.78 1000.37 1000.36 1000.73 1001.43 1002.32 1003.25 1004.10
1007.92 1008.05 1008.05 1007.86 1007.49 1006.96 1006.35 1005.76 1005.29 1005.04 1005.04 1005.28 1005.71 1006.24 1006.77 1007.22 1007.53 1007.72 1007.81 1007.88 1007.99 1008.18 1008.46 1008.77 1009.06 1009.24 1009.27 1009.10 1008.78 1008.34 1007.87 1007.44 1007.08 1006.81 1006.56 1006.29 1005.93 1005.45 1004.84 1004.16 1003.50 1002.98 1002.68 1002.65 1002.89 1003.35 1003.94 1004.55 1005.10
1008.00 1008.09 1008.03 1007.80 1007.39 1006.85 1006.24 1005.67 1005.22 1004.99 1005.02 1005.28 1005.73 1006.27 1006.82 1007.30 1007.65 1007.87 1008.01 1008.13 1008.27 1008.49 1008.77 1009.09 1009.37 1009.55 1009.56 1009.38 1009.04 1008.58 1008.09 1007.63 1007.27 1007.02 1006.84 1006.69 1006.51 1006.27 1005.93 1005.54 1005.14 1004.81 1004.60 1004.57 1004.69 1004.95 1005.28 1005.63 1005.94
1008.03 1008.07 1007.97 1007.71 1007.29 1006.74 1006.14 1005.58 1005.15 1004.94 1004.97 1005.24 1005.70 1006.25 1006.82 1007.33 1007.73 1008.01 1008.20 1008.36 1008.55 1008.78 1009.07 1009.38 1009.64 1009.80 1009.80 1009.61 1009.26 1008.80 1008.30 1007.83 1007.47 1007.22 1007.08 1007.02 1006.96 1006.88 1006.75 1006.57 1006.37 1006.18 1006.06 1006.03 1006.07 1006.19 1006.34 1006.50 1006.65
1008.00 1008.01 1007.88 1007.60 1007.18 1006.63 1006.05 1005.50 1005.08 1004.87 1004.89 1005.15 1005.60 1006.17 1006.76 1007.30 1007.75 1008.10 1008.35 1008.57 1008.79 1009.03 1009.31 1009.60 1009.84 1009.98 1009.97 1009.79 1009.46 1009.01 1008.53 1008.08 1007.72 1007.48 1007.37 1007.34 1007.36 1007.37 1007.37 1007.32 1007.24 1007.16 1007.10 1007.07 1007.08 1007.12 1007.18 1007.24 1007.31
1007.95 1007.92 1007.77 1007.49 1007.07 1006.54 1005.97 1005.43 1005.01 1004.79 1004.79 1005.03 1005.46 1006.02 1006.63 1007.21 1007.72 1008.13 1008.45 1008.72 1008.97 1009.23 1009.50 1009.76 1009.98 1010.11 1010.10 1009.94 1009.64 1009.24 1008.81 1008.40 1008.07 1007.85 1007.75 1007.73 1007.78 1007.83 1007.88 1007.90 1007.89 1007.87 1007.85 1007.84 1007.86 1007.88 1007.91 1007.95 1008.01
1007.87 1007.83 1007.67 1007.39 1006.98 1006.47 1005.91 1005.38 1004.95 1004.70 1004.67 1004.87 1005.27 1005.82 1006.44 1007.06 1007.62 1008.10 1008.49 1008.81 1009.09 1009.36 1009.62 1009.86 1010.06 1010.18 1010.18 1010.06 1009.82 1009.50 1009.14 1008.80 1008.53 1008.35 1008.26 1008.25 1008.29 1008.35 1008.40 1008.44 1008.46 1008.46 1008.47 1008.49 1008.53 1008.58 1008.64 1008.72 1008.81
1007.83 1007.77 1007.61 1007.34 1006.94 1006.44 1005.90 1005.36 1004.91 1004.63 1004.55 1004.71 1005.07 1005.59 1006.21 1006.86 1007.47 1008.00 1008.45 1008.82 1009.14 1009.42 1009.68 1009.91 1010.10 1010.22 1010.25 1010.18 1010.02 1009.79 1009.53 1009.28 1009.08 1008.95 1008.88 1008.88 1008.91 1008.96 1009.00 1009.03 1009.05 1009.07 1009.10 1009.15 1009.22 1009.32 1009.44 1009.58 1009.74
1007.84 1007.78 1007.62 1007.35 1006.97 1006.48 1005.93 1005.39 1004.91 1004.59 1004.46 1004.56 1004.87 1005.37 1005.97 1006.63 1007.28 1007.86 1008.36 1008.78 1009.13 1009.43 1009.69 1009.92 1010.11 1010.25 1010.32 1010.32 1010.24 1010.11 1009.95 1009.80 1009.68 1009.60 1009.58 1009.59 1009.63 1009.66 1009.69 1009.71 1009.72 1009.74 1009.78 1009.86 1009.98 1010.13 1010.32 1010.52 1010.73
1007.97 1007.90 1007.74 1007.47 1007.08 1006.59 1006.03 1005.46 1004.95 1004.58 1004.40 1004.45 1004.71 1005.16 1005.75 1006.41 1007.07 1007.69 1008.23 1008.69 1009.07 1009.39 1009.67 1009.92 1010.13 1010.30 1010.42 1010.48 1010.48 1010.44 1010.38 1010.31 1010.26 1010.25 1010.26 1010.30 1010.35 1010.39 1010.42 1010.43 1010.45 1010.47 1010.53 1010.63 1010.77 1010.97 1011.20 1011.45 1011.70
1008.21 1008.14 1007.97 1007.68 1007.28 1006.77 1006.19 1005.59 1005.04 1004.62 1004.39 1004.37 1004.58 1005.00 1005.56 1006.21 1006.88 1007.51 1008.08 1008.57 1008.98 1009.34 1009.64 1009.92 1010.16 1010.37 1010.54 1010.66 1010.74 1010.77 1010.78 1010.78 1010.79 1010.82 1010.87 1010.93 1011.00 1011.06 1011.11 1011.14 1011.17 1011.20 1011.27 1011.38 1011.54 1011.75 1012.00 1012.27 1012.54
1008.57 1008.48 1008.29 1007.98 1007.55 1007.01 1006.39 1005.75 1005.15 1004.68 1004.39 1004.33 1004.49 1004.86 1005.39 1006.03 1006.69 1007.34 1007.93 1008.44 1008.88 1009.27 1009.60 1009.92 1010.20 1010.47 1010.69 1010.87 1011.00 1011.09 1011.15 1011.19 1011.22 1011.27 1011.34 1011.43 1011.52 1011.61 1011.69 1011.75 1011.81 1011.87 1011.95 1012.06 1012.21 1012.42 1012.66 1012.92 1013.18
1009.00 1008.89 1008.67 1008.33 1007.86 1007.27 1006.60 1005.91 1005.26 1004.74 1004.40 1004.28 1004.40 1004.74 1005.25 1005.86 1006.52 1007.17 1007.77 1008.30 1008.77 1009.19 1009.56 1009.92 1010.26 1010.57 1010.85 1011.09 1011.27 1011.39 1011.48 1011.53 1011.57 1011.62 1011.69 1011.78 1011.89 1012.02 1012.14 1012.24 1012.34 1012.43 1012.51 1012.62 1012.76 1012.93 1013.13 1013.36 1013.59
1009.44 1009.31 1009.06 1008.68 1008.16 1007.52 1006.79 1006.04 1005.33 1004.75 1004.35 1004.20 1004.28 1004.59 1005.08 1005.69 1006.35 1007.00 1007.61 1008.16 1008.65 1009.10 1009.51 1009.91 1010.30 1010.67 1011.01 1011.30 1011.53 1011.68 1011.77 1011.82 1011.84 1011.87 1011.92 1012.02 1012.14 1012.29 1012.45 1012.61 1012.75 1012.87 1012.97 1013.07 1013.17 1013.29 1013.44 1013.62 1013.81
1009.82 1009.67 1009.40 1008.98 1008.42 1007.72 1006.92 1006.10 1005.32 1004.67 1004.23 1004.02 1004.08 1004.37 1004.85 1005.47 1006.14 1006.81 1007.44 1008.01 1008.52 1008.99 1009.44 1009.88 1010.32 1010.75 1011.15 1011.49 1011.76 1011.94 1012.05 1012.08 1012.09 1012.09 1012.12 1012.20 1012.32 1012.50 1012.69 1012.90 1013.08 1013.23 1013.35 1013.43 1013.50 1013.57 1013.66 1013.77 1013.91
1010.11 1009.95 1009.66 1009.22 1008.60 1007.84 1006.98 1006.07 1005.21 1004.48 1003.97 1003.72 1003.74 1004.03 1004.52 1005.15 1005.86 1006.56 1007.22 1007.82 1008.36 1008.85 1009.33 1009.81 1010.30 1010.78 1011.23 1011.64 1011.96 1012.18 1012.31 1012.35 1012.35 1012.33 1012.33 1012.39 1012.51 1012.70 1012.92 1013.16 1013.38 1013.57 1013.70 1013.77 1013.81 1013.83 1013.85 1013.90 1013.99
1010.28 1010.13 1009.84 1009.37 1008.72 1007.90 1006.95 1005.95 1004.99 1004.17 1003.58 1003.27 1003.26 1003.54 1004.05 1004.73 1005.48 1006.24 1006.96 1007.60 1008.17 1008.69 1009.19 1009.70 1010.21 1010.74 1011.25 1011.72 1012.10 1012.39 1012.56 1012.63 1012.64 1012.62 1012.61 1012.65 1012.77 1012.95 1013.19 1013.45 1013.70 1013.91 1014.06 1014.14 1014.16 1014.14 1014.11 1014.10 1014.13
1010.37 1010.24 1009.95 1009.48 1008.80 1007.91 1006.88 1005.77 1004.69 1003.76 1003.07 1002.68 1002.64 1002.91 1003.46 1004.19 1005.01 1005.85 1006.64 1007.34 1007.95 1008.50 1009.02 1009.54 1010.08 1010.64 1011.20 1011.72 1012.18 1012.54 1012.79 1012.92 1012.96 1012.96 1012.95 1012.99 1013.09 1013.27 1013.51 1013.79 1014.06 1014.29 1014.46 1014.55 1014.56 1014.51 1014.44 1014.39 1014.37
1010.44 1010.32 1010.06 1009.58 1008.87 1007.92 1006.80 1005.58 1004.37 1003.30 1002.49 1002.02 1001.92 1002.19 1002.76 1003.55 1004.47 1005.40 1006.27 1007.05 1007.72 1008.30 1008.84 1009.36 1009.91 1010.48 1011.08 1011.66 1012.19 1012.64 1012.97 1013.18 1013.29 1013.33 1013.34 1013.38 1013.47 1013.64 1013.87 1014.15 1014.43 1014.68 1014.87 1014.97 1014.99 1014.95 1014.86 1014.77 1014.72
1010.54 1010.45 1010.20 1009.72 1008.98 1007.98 1006.76 1005.42 1004.07 1002.87 1001.93 1001.35 1001.19 1001.43 1002.02 1002.87 1003.88 1004.91 1005.89 1006.75 1007.49 1008.11 1008.66 1009.18 1009.72 1010.30 1010.91 1011.54 1012.13 1012.66 1013.09 1013.39 1013.58 1013.68 1013.73 1013.78 1013.87 1014.02 1014.23 1014.49 1014.78 1015.04 1015.25 1015.38 1015.43 1015.40 1015.31 1015.22 1015.14
1010.72 1010.65 1010.41 1009.93 1009.16 1008.11 1006.81 1005.36 1003.88 1002.53 1001.45 1000.76 1000.51 1000.71 1001.31 1002.21 1003.30 1004.43 1005.52 1006.47 1007.28 1007.95 1008.51 1009.03 1009.55 1010.11 1010.73 1011.38 1012.03 1012.63 1013.14 1013.53 1013.81 1013.97 1014.07 1014.14 1014.22 1014.35 1014.54 1014.79 1015.06 1015.33 1015.56 1015.72 1015.80 1015.81 1015.75 1015.67 1015.58
1011.00 1010.92 1010.68 1010.19 1009.41 1008.31 1006.95 1005.40 1003.81 1002.33 1001.13 1000.32 999.98 1000.13 1000.71 1001.64 1002.78 1004.00 1005.18 1006.23 1007.11 1007.82 1008.40 1008.91 1009.42 1009.96 1010.55 1011.21 1011.88 1012.53 1013.12 1013.60 1013.95 1014.18 1014.33 1014.42 1014.50 1014.62 1014.78 1015.00 1015.26 1015.52 1015.77 1015.97 1016.09 1016.14 1016.12 1016.06 1015.98
1011.33 1011.23 1010.97 1010.47 1009.67 1008.55 1007.15 1005.55 1003.88 1002.31 1001.00 1000.08 999.65 999.73 1000.27 1001.19 1002.37 1003.65 1004.90 1006.02 1006.97 1007.73 1008.34 1008.85 1009.33 1009.84 1010.41 1011.05 1011.73 1012.41 1013.05 1013.59 1014.01 1014.31 1014.49 1014.61 1014.70 1014.80 1014.94 1015.13 1015.37 1015.63 1015.89 1016.11 1016.27 1016.36 1016.39 1016.36 1016.30
1011.65 1011.49 1011.20 1010.68 1009.88 1008.77 1007.36 1005.75 1004.05 1002.44 1001.06 1000.07 999.55 999.55 1000.03 1000.91 1002.08 1003.38 1004.68 1005.86 1006.86 1007.66 1008.30 1008.82 1009.29 1009.77 1010.31 1010.92 1011.59 1012.28 1012.94 1013.52 1014.00 1014.35 1014.58 1014.73 1014.83 1014.92 1015.04 1015.21 1015.42 1015.67 1015.93 1016.16 1016.35 1016.47 1016.53 1016.53 1016.49
1011.85 1011.63 1011.29 1010.76 1009.97 1008.88 1007.52 1005.95 1004.29 1002.68 1001.28 1000.24 999.66 999.57 999.97 1000.79 1001.91 1003.19 1004.49 1005.70 1006.74 1007.59 1008.26 1008.80 1009.27 1009.73 1010.25 1010.83 1011.48 1012.16 1012.83 1013.43 1013.95 1014.34 1014.62 1014.80 1014.92 1015.02 1015.13 1015.28 1015.47 1015.70 1015.94 1016.17 1016.36 1016.50 1016.57 1016.59 1016.57
Thickness
5828 5833 5837 5834 5829 5823 5810 5816 5824 5821 5822 5829 5828 5823 5815 5809 5801 5790 5810 5817 5814 5810 5802 5793 5787 5784 5781 5779 5777 5775 5774 5772 5770 5769 5768 5766 5765 5765 5765 5765 5764 5764 5764 5764 5763 5762 5761 5760 5759
5835 5837 5835 5834 5825 5808 5805 5819 5820 5822 5827 5831 5828 5823 5816 5810 5813 5810 5812 5813 5812 5809 5802 5794 5786 5783 5780 5777 5775 5774 5772 5770 5768 5767 5766 5764 5763 5763 5763 5762 5762 5762 5762 5762 5761 5760 5759 5758 5757
5837 5837 5833 5832 5819 5810 5807 5820 5822 5828 5832 5829 5823 5823 5815 5808 5811 5812 5814 5813 5812 5807 5801 5792 5785 5782 5779 5776 5774 5772 5770 5768 5766 5765 5764 5762 5761 5761 5761 5760 5760 5760 5760 5759 5758 5758 5757 5756 5755
5836 5835 5834 5825 5812 5817 5820 5823 5827 5825 5828 5829 5824 5815 5815 5814 5816 5816 5815 5813 5810 5806 5801 5791 5784 5781 5778 5775 5772 5770 5768 5766 5764 5763 5762 5760 5759 5759 5758 5758 5758 5757 5757 5757 5756 5756 5755 5754 5753
5836 5832 5823 5814 5813 5820 5827 5829 5829 5824 5822 5825 5822 5812 5807 5814 5818 5817 5813 5812 5808 5805 5800 5791 5783 5779 5776 5774 5771 5769 5766 5764 5762 5761 5760 5759 5758 5757 5756 5756 5755 5755 5755 5755 5754 5754 5753 5753 5752
5830 5829 5814 5806 5810 5819 5827 5832 5830 5825 5824 5824 5821 5813 5807 5814 5813 5813 5813 5810 5808 5804 5799 5790 5782 5778 5775 5773 5770 5767 5765 5763 5761 5760 5759 5758 5757 5756 5755 5754 5754 5754 5753 5753 5752 5752 5752 5751 5750
5822 5819 5810 5810 5808 5813 5821 5832 5827 5823 5820 5821 5825 5812 5807 5810 5812 5812 5811 5809 5806 5802 5798 5792 5786 5780 5775 5772 5769 5766 5764 5762 5760 5759 5757 5757 5756 5755 5754 5753 5753 5752 5752 5751 5751 5750 5749 5749 5749
5828 5820 5809 5809 5806 5809 5823 5828 5828 5824 5821 5828 5827 5812 5806 5809 5812 5811 5809 5806 5803 5800 5797 5792 5788 5783 5779 5775 5769 5765 5763 5761 5759 5758 5757 5756 5755 5754 5753 5753 5751 5751 5750 5749 5749 5748 5748 5748 5748
5826 5810 5803 5806 5807 5811 5822 5821 5825 5830 5825 5822 5824 5821 5819 5815 5812 5807 5803 5801 5798 5795 5794 5791 5788 5784 5781 5777 5770 5766 5763 5761 5759 5758 5756 5757 5758 5758 5756 5753 5750 5749 5749 5748 5747 5747 5747 5747 5747
5816 5803 5805 5814 5818 5816 5817 5817 5819 5820 5815 5813 5813 5815 5816 5812 5807 5803 5799 5796 5794 5791 5791 5789 5787 5783 5781 5777 5772 5769 5766 5763 5762 5760 5759 5759 5758 5757 5755 5750 5749 5748 5748 5747 5747 5747 5747 5749 5750
5811 5804 5810 5814 5819 5818 5815 5815 5820 5814 5808 5812 5809 5808 5809 5807 5804 5801 5799 5797 5794 5792 5789 5788 5785 5782 5780 5776 5773 5770 5767 5764 5762 5760 5758 5757 5756 5756 5755 5753 5751 5749 5749 5750 5748 5749 5750 5751 5749
5805 5806 5809 5811 5816 5814 5812 5814 5812 5811 5811 5820 5819 5814 5809 5804 5803 5801 5798 5796 5794 5791 5788 5787 5784 5780 5778 5775 5772 5769 5767 5764 5762 5759 5757 5757 5756 5754 5753 5752 5751 5750 5750 5749 5749 5748 5748 5747 5747
5799 5801 5806 5809 5811 5812 5811 5808 5808 5809 5817 5819 5817 5811 5806 5804 5802 5801 5799 5796 5793 5790 5787 5785 5782 5778 5775 5772 5770 5768 5765 5764 5760 5757 5756 5755 5755 5753 5752 5751 5749 5749 5749 5748 5747 5746 5745 5745 5745
5800 5800 5802 5806 5807 5808 5803 5806 5805 5807 5815 5813 5810 5807 5806 5803 5802 5799 5795 5792 5790 5788 5785 5783 5780 5776 5773 5771 5768 5766 5764 5760 5759 5757 5755 5753 5753 5752 5750 5749 5747 5747 5746 5745 5744 5744 5743 5744 5743
5798 5792 5795 5801 5803 5805 5803 5795 5800 5808 5811 5806 5805 5804 5803 5802 5800 5796 5794 5790 5789 5786 5784 5781 5778 5775 5771 5769 5767 5765 5763 5761 5758 5755 5753 5751 5751 5749 5748 5747 5746 5745 5744 5742 5742 5742 5742 5741 5741
5792 5786 5781 5794 5798 5800 5793 5783 5800 5807 5805 5801 5801 5800 5798 5797 5797 5795 5793 5790 5788 5785 5781 5779 5778 5774 5770 5767 5765 5764 5762 5760 5757 5754 5752 5750 5748 5746 5745 5745 5744 5742 5742 5741 5740 5740 5740 5739 5738
5781 5776 5778 5785 5794 5794 5789 5784 5796 5804 5801 5797 5796 5796 5794 5793 5792 5792 5792 5789 5786 5783 5779 5776 5775 5772 5769 5766 5763 5762 5760 5757 5756 5753 5751 5749 5747 5745 5744 5742 5741 5740 5740 5740 5739 5738 5737 5735 5734
5771 5775 5775 5776 5786 5785 5782 5783 5791 5796 5796 5794 5794 5792 5790 5789 5789 5791 5789 5787 5784 5781 5778 5774 5771 5769 5766 5764 5761 5759 5757 5755 5753 5751 5749 5747 5745 5743 5742 5740 5738 5738 5738 5736 5735 5733 5732 5732 5731
5775 5771 5770 5774 5783 5778 5776 5778 5784 5788 5789 5789 5789 5788 5786 5786 5788 5788 5787 5785 5781 5778 5774 5771 5769 5766 5763 5761 5759 5756 5754 5753 5752 5749 5746 5744 5743 5741 5739 5739 5736 5736 5735 5733 5733 5731 5730 5729 5729
5767 5763 5765 5771 5776 5771 5771 5773 5783 5784 5783 5785 5784 5783 5783 5783 5782 5780 5780 5779 5777 5774 5771 5768 5765 5764 5762 5760 5758 5755 5753 5751 5749 5747 5743 5741 5740 5738 5738 5735 5735 5733 5731 5730 5729 5727 5727 5727 5727
5759 5759 5761 5760 5767 5769 5765 5766 5774 5780 5782 5782 5782 5783 5782 5779 5777 5774 5773 5773 5773 5771 5768 5767 5763 5761 5758 5757 5755 5752 5749 5747 5745 5742 5741 5738 5737 5735 5734 5733 5732 5730 5730 5728 5726 5725 5723 5723 5724
5751 5763 5760 5757 5752 5758 5760 5754 5768 5774 5771 5772 5775 5777 5777 5776 5774 5772 5770 5768 5767 5768 5767 5763 5759 5757 5755 5753 5752 5749 5746 5743 5742 5740 5738 5735 5734 5732 5731 5729 5728 5727 5727 5725 5725 5723 5722 5720 5720
5754 5762 5756 5753 5750 5749 5757 5748 5763 5769 5762 5766 5769 5771 5772 5772 5770 5768 5767 5765 5765 5764 5763 5760 5755 5752 5751 5749 5747 5744 5743 5741 5740 5737 5734 5732 5731 5729 5728 5726 5725 5723 5723 5721 5720 5719 5719 5719 5717
5755 5750 5748 5748 5748 5734 5751 5744 5749 5762 5760 5763 5765 5765 5765 5766 5766 5764 5763 5762 5760 5759 5757 5754 5750 5747 5746 5744 5743 5740 5737 5735 5734 5732 5730 5729 5728 5727 5724 5723 5721 5720 5719 5718 5717 5716 5716 5715 5713
5745 5734 5726 5725 5728 5736 5752 5740 5745 5759 5762 5761 5760 5760 5760 5760 5760 5758 5756 5755 5753 5752 5749 5747 5743 5740 5740 5739 5737 5735 5733 5730 5728 5728 5726 5726 5726 5724 5720 5720 5717 5717 5715 5714 5713 5712 5712 5711 5709
5738 5734 5720 5714 5725 5740 5741 5733 5748 5756 5757 5757 5757 5756 5754 5753 5753 5752 5751 5749 5746 5745 5742 5741 5737 5735 5734 5733 5731 5729 5728 5727 5726 5724 5724 5722 5722 5721 5718 5715 5713 5712 5712 5711 5709 5710 5708 5707 5705
5731 5732 5740 5728 5728 5723 5731 5737 5742 5749 5747 5747 5747 5746 5745 5745 5745 5745 5744 5742 5740 5738 5736 5734 5731 5729 5727 5727 5726 5724 5723 5721 5720 5718 5718 5718 5717 5717 5714 5712 5710 5709 5707 5706 5705 5705 5704 5703 5703
5734 5734 5726 5719 5705 5707 5721 5725 5731 5734 5736 5738 5737 5737 5737 5737 5737 5736 5736 5734 5733 5732 5730 5728 5725 5723 5721 5720 5720 5719 5716 5714 5712 5712 5711 5711 5711 5710 5709 5708 5707 5705 5704 5703 5701 5701 5700 5698 5698
5718 5717 5717 5718 5716 5704 5705 5717 5735 5731 5731 5730 5731 5731 5730 5729 5728 5727 5727 5727 5726 5725 5723 5720 5718 5716 5715 5714 5713 5712 5710 5709 5708 5707 5707 5706 5705 5705 5703 5703 5702 5701 5700 5698 5697 5697 5696 5694 5693
5716 5715 5711 5699 5699 5705 5704 5710 5727 5725 5724 5723 5722 5722 5721 5720 5720 5720 5719 5718 5717 5715 5714 5712 5711 5709 5708 5708 5706 5705 5704 5704 5703 5703 5702 5702 5700 5700 5698 5698 5697 5696 5695 5694 5693 5692 5692 5690 5688